Simultaneous Nadir Overpasses (SNOs) Predictions

Prediction of SNOs between AQUA and NOAA-19 Satellite Orbit:

Table of predicted SNOs for the next 14.0 days since TLE Epoch: 4/19/2014
Index Date (AQUA) Time (AQUA) Lat,Lon (AQUA) SZA (AQUA ) Date (NOAA-19) Time (NOAA-19) Lat,Lon (NOAA-19) SZA (NOAA-19 ) Distance(km) Time Diff (sec)
1 04/20/2014 19:57:45 -75.17, 51.82 116.44 04/20/2014 19:56:33 -75.17, 51.86 116.43 1.21 72
2 04/20/2014 20:46:47 73.87,-137.36 62.14 04/20/2014 20:47:06 73.86,-137.28 62.13 2.75 19
3 04/23/2014 01:31:11 74.40, 150.36 61.97 04/23/2014 01:31:12 74.39, 150.38 61.96 0.78 1
4 04/25/2014 06:15:27 74.56, 78.91 61.41 04/25/2014 06:15:10 74.55, 79.00 61.41 2.71 17
5 04/25/2014 07:01:35 -63.73, -98.25 129.31 04/25/2014 07:02:48 -63.90, -97.06 129.02 61.60 73
6 04/27/2014 10:59:45 74.87, 7.08 61.04 04/27/2014 10:59:11 74.86, 7.17 61.03 2.79 34
7 04/27/2014 11:48:50 -73.82, 177.23 120.10 04/27/2014 11:49:51 -73.82, 177.19 120.10 1.41 61
8 04/29/2014 15:44:03 75.22, -64.89 60.73 04/29/2014 15:43:13 75.22, -64.86 60.74 0.99 50
9 04/29/2014 16:33:07 -74.12, 105.49 120.47 04/29/2014 16:33:51 -74.13, 105.47 120.47 0.74 44
10 05/01/2014 20:28:22 75.67,-137.18 60.55 05/01/2014 20:27:17 75.68,-137.28 60.58 2.78 65




NCC Satellite Simultaneous Nadir Overpasses (SNOs) Prediction Service
